Location: Karcze
(52.0945°N, 22.4786°E)
Time: 00:17:29
(UTC+00:00)

A-11 Canister half - Pass Details

Date: 07 August 2021
Orbit: 1514 x 1685 km, 47.2° (Epoch: 16 September)

Event Time Altitude Azimuth Distance (km) Brightness Sun altitude
Rises 18:43:16 0° 281° (W) 4,851 13.0 -5.2°
Reaches altitude 10° 18:46:28 10° 277° (W) 3,885 12.2 -5.6°
Maximum altitude 18:55:57 51° 205° (SSW) 2,025 9.6 -6.8°
Drops below altitude 10° 19:05:35 10° 134° (SE) 3,945 10.5 -8.0°
Enters shadow 19:05:54 - 134° (SE) 4,037 10.5 -8.0°
Sets 19:08:52 0° 130° (SE) 4,932 - -8.4°
